Time,TemperatureF,DewpointF,PressureIn,WindDirection,WindDirectionDegrees,WindSpeedMPH,WindSpeedGustMPH,Humidity,HourlyPrecipIn,Conditions,Clouds,dailyrainin,SoftwareType,DateUTC
2013-06-09 00:00:00,65.3,57.2,29.97,SE,134,0.0,0.0,75,0.00,CLR,,0.00,WeatherDisplay:10.37,2013-06-09 05:00:00,
2013-06-09 00:05:00,65.2,57.1,29.96,SE,134,0.0,0.0,75,0.00,CLR,,0.00,WeatherDisplay:10.37,2013-06-09 05:05:00,
2013-06-09 00:10:00,65.2,57.4,29.97,SE,134,0.0,0.0,76,0.00,CLR,,0.00,WeatherDisplay:10.37,2013-06-09 05:10:00,
2013-06-09 00:15:00,65.3,57.5,29.97,SE,134,0.0,0.0,76,0.00,CLR,,0.00,WeatherDisplay:10.37,2013-06-09 05:15:00,
2013-06-09 00:20:00,65.4,57.3,29.97,SE,134,0.0,0.0,75,0.00,CLR,,0.00,WeatherDisplay:10.37,2013-06-09 05:20:00,
2013-06-09 00:26:00,65.7,57.9,29.97,SE,134,0.0,0.0,76,0.00,CLR,,0.00,WeatherDisplay:10.37,2013-06-09 05:26:00,
2013-06-09 00:31:00,65.6,58.2,29.97,SE,134,0.0,0.0,77,0.00,CLR,,0.00,WeatherDisplay:10.37,2013-06-09 05:31:00,
2013-06-09 00:36:00,65.6,58.2,29.97,SE,134,0.0,0.0,77,0.00,CLR,,0.00,WeatherDisplay:10.37,2013-06-09 05:36:00,
2013-06-09 00:41:00,65.6,58.2,29.97,SE,134,0.0,0.0,77,0.00,CLR,,0.00,WeatherDisplay:10.37,2013-06-09 05:41:00,
2013-06-09 00:46:00,65.5,58.1,29.97,SE,134,0.0,0.0,77,0.00,CLR,,0.00,WeatherDisplay:10.37,2013-06-09 05:46:00,
2013-06-09 00:52:00,65.6,57.8,29.97,SE,134,0.0,0.0,76,0.00,CLR,,0.00,WeatherDisplay:10.37,2013-06-09 05:52:00,
2013-06-09 00:57:00,65.8,58.0,29.96,SE,134,0.0,0.0,76,0.00,CLR,,0.00,WeatherDisplay:10.37,2013-06-09 05:57:00,
2013-06-09 01:02:00,65.9,57.7,29.96,SE,134,0.0,0.0,75,0.00,CLR,,0.00,WeatherDisplay:10.37,2013-06-09 06:02:00,
2013-06-09 01:07:00,66.0,57.8,29.96,SE,134,0.0,0.0,75,0.00,CLR,,0.00,WeatherDisplay:10.37,2013-06-09 06:07:00,
2013-06-09 01:12:00,66.3,58.1,29.96,SE,134,0.0,0.0,75,0.00,CLR,,0.00,WeatherDisplay:10.37,2013-06-09 06:12:00,
2013-06-09 01:17:00,66.4,57.9,29.96,SE,134,0.0,0.0,74,0.00,CLR,,0.00,WeatherDisplay:10.37,2013-06-09 06:17:00,
2013-06-09 01:22:00,66.5,58.0,29.96,SE,134,0.0,0.0,74,0.00,CLR,,0.00,WeatherDisplay:10.37,2013-06-09 06:22:00,
2013-06-09 01:27:00,66.7,57.8,29.95,SE,134,0.0,0.0,73,0.00,CLR,,0.00,WeatherDisplay:10.37,2013-06-09 06:27:00,
2013-06-09 01:32:00,66.7,57.8,29.95,SE,134,0.0,0.0,73,0.00,CLR,,0.00,WeatherDisplay:10.37,2013-06-09 06:32:00,
2013-06-09 01:37:00,66.5,57.6,29.95,SE,134,0.0,0.0,73,0.00,CLR,,0.00,WeatherDisplay:10.37,2013-06-09 06:37:00,
2013-06-09 01:43:00,66.1,57.6,29.95,SE,134,0.0,0.0,74,0.00,CLR,,0.00,WeatherDisplay:10.37,2013-06-09 06:43:00,
2013-06-09 01:48:00,65.8,57.7,29.95,SE,134,0.0,0.0,75,0.00,CLR,,0.00,WeatherDisplay:10.37,2013-06-09 06:48:00,
2013-06-09 01:53:00,65.4,57.3,29.95,SE,134,0.0,0.0,75,0.00,CLR,,0.00,WeatherDisplay:10.37,2013-06-09 06:53:00,
2013-06-09 01:58:00,65.2,57.4,29.95,SE,134,0.0,0.0,76,0.00,CLR,,0.00,WeatherDisplay:10.37,2013-06-09 06:58:00,
2013-06-09 02:03:00,64.8,57.4,29.95,SE,134,0.0,0.0,77,0.00,CLR,,0.00,WeatherDisplay:10.37,2013-06-09 07:03:00,
2013-06-09 02:08:00,64.5,57.1,29.95,SE,134,0.0,0.0,77,0.00,CLR,,0.00,WeatherDisplay:10.37,2013-06-09 07:08:00,
2013-06-09 02:13:00,64.2,57.2,29.95,SE,134,0.0,0.0,78,0.00,CLR,,0.00,WeatherDisplay:10.37,2013-06-09 07:13:00,
2013-06-09 02:18:00,63.8,57.2,29.95,SE,134,0.0,0.0,79,0.00,CLR,,0.00,WeatherDisplay:10.37,2013-06-09 07:18:00,
2013-06-09 02:23:00,63.5,57.2,29.95,SE,134,0.0,0.0,80,0.00,CLR,,0.00,WeatherDisplay:10.37,2013-06-09 07:23:00,
2013-06-09 02:28:00,63.3,57.0,29.94,SE,134,0.0,0.0,80,0.00,CLR,,0.00,WeatherDisplay:10.37,2013-06-09 07:28:00,
2013-06-09 02:34:00,63.2,57.3,29.94,SE,134,0.0,0.0,81,0.00,CLR,,0.00,WeatherDisplay:10.37,2013-06-09 07:34:00,
2013-06-09 02:39:00,63.2,57.3,29.94,SE,134,0.0,0.0,81,0.00,CLR,,0.00,WeatherDisplay:10.37,2013-06-09 07:39:00,
2013-06-09 02:44:00,63.1,57.2,29.95,SE,134,0.0,0.0,81,0.00,CLR,,0.00,WeatherDisplay:10.37,2013-06-09 07:44:00,
2013-06-09 02:49:00,63.3,57.4,29.95,SE,134,0.0,0.0,81,0.00,CLR,,0.00,WeatherDisplay:10.37,2013-06-09 07:49:00,
2013-06-09 02:54:00,63.4,57.5,29.95,SE,134,0.0,0.0,81,0.00,CLR,,0.00,WeatherDisplay:10.37,2013-06-09 07:54:00,
2013-06-09 02:59:00,63.6,57.7,29.95,SE,134,0.0,0.0,81,0.00,CLR,,0.00,WeatherDisplay:10.37,2013-06-09 07:59:00,
2013-06-09 03:04:00,63.9,58.0,29.95,ESE,120,1.2,0.0,81,0.00,CLR,,0.00,WeatherDisplay:10.37,2013-06-09 08:04:00,
2013-06-09 03:09:00,63.9,57.6,29.95,ESE,120,0.0,0.0,80,0.00,CLR,,0.00,WeatherDisplay:10.37,2013-06-09 08:09:00,
2013-06-09 03:15:00,63.9,57.6,29.95,ESE,119,0.0,0.0,80,0.00,CLR,,0.00,WeatherDisplay:10.37,2013-06-09 08:15:00,
2013-06-09 03:20:00,64.0,58.1,29.96,ESE,119,0.0,0.0,81,0.00,CLR,,0.00,WeatherDisplay:10.37,2013-06-09 08:20:00,
2013-06-09 03:25:00,64.0,58.1,29.96,ESE,120,0.0,0.0,81,0.00,CLR,,0.00,WeatherDisplay:10.37,2013-06-09 08:25:00,
2013-06-09 03:30:00,64.0,58.1,29.96,ESE,119,0.0,0.0,81,0.00,CLR,,0.00,WeatherDisplay:10.37,2013-06-09 08:30:00,
2013-06-09 03:35:00,64.0,58.4,29.96,ESE,119,0.0,0.0,82,0.00,CLR,,0.00,WeatherDisplay:10.37,2013-06-09 08:35:00,
2013-06-09 03:41:00,64.1,58.5,29.96,ESE,120,0.0,0.0,82,0.00,CLR,,0.00,WeatherDisplay:10.37,2013-06-09 08:41:00,
2013-06-09 03:46:00,64.2,58.6,29.96,ESE,120,0.0,0.0,82,0.00,CLR,,0.00,WeatherDisplay:10.37,2013-06-09 08:46:00,
2013-06-09 03:51:00,64.4,58.8,29.96,ESE,121,0.0,0.0,82,0.00,CLR,,0.00,WeatherDisplay:10.37,2013-06-09 08:51:00,
2013-06-09 03:56:00,64.3,58.3,29.96,ESE,121,0.0,0.0,81,0.00,CLR,,0.00,WeatherDisplay:10.37,2013-06-09 08:56:00,
2013-06-09 04:01:00,64.2,58.6,29.96,ESE,121,0.0,0.0,82,0.00,CLR,,0.00,WeatherDisplay:10.37,2013-06-09 09:01:00,
2013-06-09 04:06:00,64.1,58.5,29.96,ESE,121,0.0,0.0,82,0.00,CLR,,0.00,WeatherDisplay:10.37,2013-06-09 09:06:00,
2013-06-09 04:11:00,64.0,58.4,29.96,ESE,122,0.0,0.0,82,0.00,CLR,,0.00,WeatherDisplay:10.37,2013-06-09 09:11:00,
2013-06-09 04:16:00,64.0,58.4,29.96,SE,124,0.0,0.0,82,0.00,CLR,,0.00,WeatherDisplay:10.37,2013-06-09 09:16:00,
2013-06-09 04:21:00,64.0,58.4,29.96,ESE,123,1.2,1.2,82,0.00,CLR,,0.00,WeatherDisplay:10.37,2013-06-09 09:21:00,
2013-06-09 04:26:00,64.0,58.7,29.96,SE,125,0.0,0.0,83,0.00,CLR,,0.00,WeatherDisplay:10.37,2013-06-09 09:26:00,
2013-06-09 04:31:00,63.9,58.6,29.96,SE,126,0.0,0.0,83,0.00,CLR,,0.00,WeatherDisplay:10.37,2013-06-09 09:31:00,
2013-06-09 04:36:00,63.8,58.5,29.96,SE,126,0.0,0.0,83,0.00,CLR,,0.00,WeatherDisplay:10.37,2013-06-09 09:36:00,
2013-06-09 04:42:00,63.7,58.4,29.96,SE,126,0.0,0.0,83,0.00,CLR,,0.00,WeatherDisplay:10.37,2013-06-09 09:42:00,
2013-06-09 04:47:00,63.5,58.6,29.96,SE,126,0.0,0.0,84,0.00,CLR,,0.00,WeatherDisplay:10.37,2013-06-09 09:47:00,
2013-06-09 04:52:00,63.4,58.5,29.96,SE,126,0.0,0.0,84,0.00,CLR,,0.00,WeatherDisplay:10.37,2013-06-09 09:52:00,
2013-06-09 04:57:00,63.3,58.4,29.96,SE,126,0.0,0.0,84,0.00,CLR,,0.00,WeatherDisplay:10.37,2013-06-09 09:57:00,
2013-06-09 05:03:00,63.2,58.3,29.96,SE,126,0.0,0.0,84,0.00,CLR,,0.00,WeatherDisplay:10.37,2013-06-09 10:03:00,
2013-06-09 05:08:00,63.1,58.2,29.96,SE,127,0.0,0.0,84,0.00,CLR,,0.00,WeatherDisplay:10.37,2013-06-09 10:08:00,
2013-06-09 05:13:00,62.9,58.3,29.96,SE,126,0.0,0.0,85,0.00,CLR,,0.00,WeatherDisplay:10.37,2013-06-09 10:13:00,
2013-06-09 05:18:00,62.8,58.2,29.97,SE,126,0.0,0.0,85,0.00,CLR,,0.00,WeatherDisplay:10.37,2013-06-09 10:18:00,
2013-06-09 05:23:00,62.7,58.1,29.97,SE,126,0.0,0.0,85,0.00,CLR,,0.00,WeatherDisplay:10.37,2013-06-09 10:23:00,
2013-06-09 05:28:00,62.7,58.5,29.96,SE,126,0.0,0.0,86,0.00,CLR,,0.00,WeatherDisplay:10.37,2013-06-09 10:28:00,
2013-06-09 05:33:00,62.6,58.4,29.97,SE,126,0.0,0.0,86,0.00,CLR,,0.00,WeatherDisplay:10.37,2013-06-09 10:33:00,
2013-06-09 05:38:00,62.6,58.4,29.97,SE,127,0.0,0.0,86,0.00,CLR,,0.00,WeatherDisplay:10.37,2013-06-09 10:38:00,
2013-06-09 05:44:00,62.7,58.5,29.97,SE,126,0.0,0.0,86,0.00,CLR,,0.00,WeatherDisplay:10.37,2013-06-09 10:44:00,
2013-06-09 05:49:00,62.8,58.5,29.97,SE,128,0.0,0.0,86,0.00,CLR,,0.00,WeatherDisplay:10.37,2013-06-09 10:49:00,
2013-06-09 05:54:00,63.0,58.7,29.97,SE,128,0.0,0.0,86,0.00,CLR,,0.00,WeatherDisplay:10.37,2013-06-09 10:54:00,
2013-06-09 05:59:00,63.3,59.0,29.97,SE,127,0.0,0.0,86,0.00,CLR,,0.00,WeatherDisplay:10.37,2013-06-09 10:59:00,
2013-06-09 06:04:00,63.6,59.7,29.97,SE,128,0.0,0.0,87,0.00,CLR,,0.00,WeatherDisplay:10.37,2013-06-09 11:04:00,
2013-06-09 06:10:00,63.9,59.6,29.97,SE,129,1.2,1.2,86,0.00,CLR,,0.00,WeatherDisplay:10.37,2013-06-09 11:10:00,
2013-06-09 06:15:00,64.1,59.8,29.97,SE,129,1.2,1.2,86,0.00,CLR,,0.00,WeatherDisplay:10.37,2013-06-09 11:15:00,
2013-06-09 06:20:00,64.3,60.0,29.97,SE,130,0.0,0.0,86,0.00,CLR,,0.00,WeatherDisplay:10.37,2013-06-09 11:20:00,
2013-06-09 06:25:00,64.4,60.1,29.97,SE,130,0.0,0.0,86,0.00,CLR,,0.00,WeatherDisplay:10.37,2013-06-09 11:25:00,
2013-06-09 06:30:00,64.5,59.9,29.96,SE,129,0.0,0.1,85,0.00,CLR,,0.00,WeatherDisplay:10.37,2013-06-09 11:30:00,
2013-06-09 06:35:00,64.6,60.0,29.96,SE,130,0.0,0.0,85,0.00,CLR,,0.00,WeatherDisplay:10.37,2013-06-09 11:35:00,
2013-06-09 06:41:00,64.6,60.0,29.96,SE,129,0.0,0.0,85,0.00,CLR,,0.00,WeatherDisplay:10.37,2013-06-09 11:41:00,
2013-06-09 06:46:00,64.7,60.1,29.96,SE,127,0.0,0.0,85,0.00,CLR,,0.00,WeatherDisplay:10.37,2013-06-09 11:46:00,
2013-06-09 06:51:00,64.8,60.2,29.96,ESE,117,0.0,0.0,85,0.00,CLR,,0.00,WeatherDisplay:10.37,2013-06-09 11:51:00,
2013-06-09 06:56:00,64.8,60.2,29.96,ESE,117,2.0,2.0,85,0.00,CLR,,0.00,WeatherDisplay:10.37,2013-06-09 11:56:00,
2013-06-09 07:01:00,64.9,60.3,29.96,ESE,117,1.2,0.0,85,0.00,CLR,,0.00,WeatherDisplay:10.37,2013-06-09 12:01:00,
2013-06-09 07:06:00,64.9,60.3,29.97,ESE,119,0.0,0.0,85,0.00,CLR,,0.00,WeatherDisplay:10.37,2013-06-09 12:06:00,
2013-06-09 07:12:00,65.0,60.4,29.97,ESE,119,0.0,0.0,85,0.00,CLR,,0.00,WeatherDisplay:10.37,2013-06-09 12:12:00,
2013-06-09 07:17:00,65.1,60.5,29.96,ESE,119,0.0,0.0,85,0.00,CLR,,0.00,WeatherDisplay:10.37,2013-06-09 12:17:00,
2013-06-09 07:22:00,65.1,60.5,29.96,ESE,119,2.0,2.0,85,0.00,CLR,,0.00,WeatherDisplay:10.37,2013-06-09 12:22:00,
2013-06-09 07:27:00,65.2,60.6,29.96,ESE,121,1.2,0.0,85,0.00,CLR,,0.00,WeatherDisplay:10.37,2013-06-09 12:27:00,
2013-06-09 07:32:00,65.3,60.7,29.96,ESE,121,1.2,0.0,85,0.00,CLR,,0.00,WeatherDisplay:10.37,2013-06-09 12:32:00,
2013-06-09 07:37:00,65.5,60.9,29.96,ESE,122,0.0,0.0,85,0.00,CLR,,0.00,WeatherDisplay:10.37,2013-06-09 12:37:00,
2013-06-09 07:42:00,65.8,60.8,29.96,SSE,160,2.3,2.3,84,0.00,CLR,,0.00,WeatherDisplay:10.37,2013-06-09 12:42:00,
2013-06-09 07:48:00,65.9,60.9,29.96,SE,144,3.5,3.5,84,0.00,CLR,,0.00,WeatherDisplay:10.37,2013-06-09 12:48:00,
2013-06-09 07:53:00,66.1,60.8,29.96,SE,145,0.0,0.0,83,0.00,CLR,,0.00,WeatherDisplay:10.37,2013-06-09 12:53:00,
2013-06-09 07:58:00,66.3,61.0,29.96,SE,146,3.5,3.5,83,0.00,CLR,,0.00,WeatherDisplay:10.37,2013-06-09 12:58:00,
2013-06-09 08:03:00,66.4,61.1,29.96,SE,146,0.0,0.0,83,0.00,CLR,,0.00,WeatherDisplay:10.37,2013-06-09 13:03:00,
2013-06-09 08:08:00,66.5,61.2,29.97,SSE,148,1.2,0.0,83,0.00,CLR,,0.00,WeatherDisplay:10.37,2013-06-09 13:08:00,
2013-06-09 08:13:00,66.6,60.9,29.97,SSE,149,3.5,3.5,82,0.00,CLR,,0.00,WeatherDisplay:10.37,2013-06-09 13:13:00,
2013-06-09 08:19:00,66.8,61.1,29.97,SSE,149,0.0,0.0,82,0.00,CLR,,0.00,WeatherDisplay:10.37,2013-06-09 13:19:00,
2013-06-09 08:24:00,67.0,61.3,29.97,SSE,149,1.2,0.0,82,0.00,CLR,,0.00,WeatherDisplay:10.37,2013-06-09 13:24:00,
2013-06-09 08:29:00,67.2,61.5,29.97,SSE,148,0.0,0.0,82,0.00,CLR,,0.00,WeatherDisplay:10.37,2013-06-09 13:29:00,
2013-06-09 08:34:00,67.4,61.7,29.97,SSE,148,1.2,1.2,82,0.00,CLR,,0.00,WeatherDisplay:10.37,2013-06-09 13:34:00,
2013-06-09 08:39:00,67.7,61.7,29.97,SSE,155,2.3,2.3,81,0.00,CLR,,0.00,WeatherDisplay:10.37,2013-06-09 13:39:00,
2013-06-09 08:44:00,67.9,61.9,29.97,SSE,152,1.2,1.2,81,0.00,CLR,,0.00,WeatherDisplay:10.37,2013-06-09 13:44:00,
2013-06-09 08:49:00,68.2,61.8,29.96,SE,144,4.0,4.0,80,0.00,CLR,,0.00,WeatherDisplay:10.37,2013-06-09 13:49:00,
2013-06-09 08:54:00,68.5,62.1,29.96,SE,146,1.2,0.0,80,0.00,CLR,,0.00,WeatherDisplay:10.37,2013-06-09 13:54:00,
2013-06-09 08:59:00,69.0,62.2,29.96,South,169,4.6,4.6,79,0.00,CLR,,0.00,WeatherDisplay:10.37,2013-06-09 13:59:00,
2013-06-09 09:05:00,69.3,62.1,29.96,SSE,148,3.5,3.5,78,0.00,CLR,,0.00,WeatherDisplay:10.37,2013-06-09 14:05:00,
2013-06-09 09:10:00,69.9,62.4,29.96,SSE,164,6.9,6.9,77,0.00,CLR,,0.00,WeatherDisplay:10.37,2013-06-09 14:10:00,
2013-06-09 09:15:00,70.8,62.9,29.96,SSE,155,4.6,4.6,76,0.00,CLR,,0.00,WeatherDisplay:10.37,2013-06-09 14:15:00,
2013-06-09 09:20:00,71.2,62.5,29.96,SE,137,4.6,4.6,74,0.00,CLR,,0.00,WeatherDisplay:10.37,2013-06-09 14:20:00,
2013-06-09 09:25:00,71.7,63.0,29.95,SSE,155,0.0,0.0,74,0.00,CLR,,0.00,WeatherDisplay:10.37,2013-06-09 14:25:00,
2013-06-09 09:30:00,72.1,63.0,29.95,South,174,6.9,6.9,73,0.00,CLR,,0.00,WeatherDisplay:10.37,2013-06-09 14:30:00,
2013-06-09 09:35:00,72.0,62.5,29.95,SE,146,3.5,3.5,72,0.00,CLR,,0.00,WeatherDisplay:10.37,2013-06-09 14:35:00,
2013-06-09 09:40:00,72.4,63.3,29.95,SE,140,3.5,0.0,73,0.00,CLR,,0.00,WeatherDisplay:10.37,2013-06-09 14:40:00,
2013-06-09 09:46:00,73.3,62.5,29.95,South,183,11.0,11.0,69,0.00,CLR,,0.00,WeatherDisplay:10.37,2013-06-09 14:46:00,
2013-06-09 09:51:00,74.0,62.3,29.95,SW,226,5.8,5.8,67,0.00,CLR,,0.00,WeatherDisplay:10.37,2013-06-09 14:51:00,
2013-06-09 09:56:00,74.5,61.5,29.95,SW,228,9.2,9.2,64,0.00,CLR,,0.00,WeatherDisplay:10.37,2013-06-09 14:56:00,
2013-06-09 10:01:00,74.6,62.1,29.95,South,173,4.6,4.6,65,0.00,CLR,,0.00,WeatherDisplay:10.37,2013-06-09 15:01:00,
2013-06-09 10:06:00,74.5,62.0,29.95,SSE,163,5.8,5.8,65,0.00,CLR,,0.00,WeatherDisplay:10.37,2013-06-09 15:06:00,
2013-06-09 10:12:00,74.3,61.8,29.95,SSE,165,6.9,6.9,65,0.00,CLR,,0.00,WeatherDisplay:10.37,2013-06-09 15:12:00,
2013-06-09 10:17:00,74.1,62.0,29.95,South,173,6.9,6.9,66,0.00,CLR,,0.00,WeatherDisplay:10.37,2013-06-09 15:17:00,
2013-06-09 10:22:00,74.1,62.0,29.95,SSE,165,3.5,3.5,66,0.00,CLR,,0.00,WeatherDisplay:10.37,2013-06-09 15:22:00,
2013-06-09 10:27:00,75.1,62.5,29.95,SE,138,6.9,6.9,65,0.00,CLR,,0.00,WeatherDisplay:10.37,2013-06-09 15:27:00,
2013-06-09 10:32:00,76.2,62.7,29.95,SSW,198,11.0,11.0,63,0.00,CLR,,0.00,WeatherDisplay:10.37,2013-06-09 15:32:00,
2013-06-09 10:37:00,76.9,62.4,29.95,SSW,211,8.1,8.1,61,0.00,CLR,,0.00,WeatherDisplay:10.37,2013-06-09 15:37:00,
2013-06-09 10:43:00,77.4,60.5,29.95,WSW,243,12.7,12.7,56,0.00,CLR,,0.00,WeatherDisplay:10.37,2013-06-09 15:43:00,
2013-06-09 10:48:00,78.1,61.1,29.95,South,188,11.5,11.5,56,0.00,CLR,,0.00,WeatherDisplay:10.37,2013-06-09 15:48:00,
2013-06-09 10:53:00,78.1,61.6,29.95,SE,142,6.9,6.9,57,0.00,CLR,,0.00,WeatherDisplay:10.37,2013-06-09 15:53:00,
2013-06-09 10:58:00,78.0,61.0,29.95,SSE,156,9.2,9.2,56,0.00,CLR,,0.00,WeatherDisplay:10.37,2013-06-09 15:58:00,
2013-06-09 11:03:00,77.9,60.4,29.94,SW,215,11.5,11.5,55,0.00,CLR,,0.00,WeatherDisplay:10.37,2013-06-09 16:03:00,
2013-06-09 11:08:00,78.0,60.0,29.94,South,178,11.5,11.5,54,0.00,CLR,,0.00,WeatherDisplay:10.37,2013-06-09 16:08:00,
2013-06-09 11:14:00,78.6,60.0,29.94,South,175,15.0,15.0,53,0.00,CLR,,0.00,WeatherDisplay:10.37,2013-06-09 16:14:00,
2013-06-09 11:19:00,78.7,59.6,29.93,SSE,165,11.5,11.5,52,0.00,CLR,,0.00,WeatherDisplay:10.37,2013-06-09 16:19:00,
2013-06-09 11:24:00,79.0,59.3,29.93,SSW,194,11.0,11.0,51,0.00,CLR,,0.00,WeatherDisplay:10.37,2013-06-09 16:24:00,
2013-06-09 11:29:00,79.1,59.4,29.93,SSE,148,9.2,9.2,51,0.00,CLR,,0.00,WeatherDisplay:10.37,2013-06-09 16:29:00,
2013-06-09 11:34:00,79.1,58.3,29.93,SW,219,15.0,15.0,49,0.00,CLR,,0.00,WeatherDisplay:10.37,2013-06-09 16:34:00,
2013-06-09 11:40:00,79.6,58.2,29.93,SE,141,9.2,9.2,48,0.00,CLR,,0.00,WeatherDisplay:10.37,2013-06-09 16:40:00,
2013-06-09 11:45:00,79.6,57.6,29.93,South,183,13.0,13.0,47,0.00,CLR,,0.00,WeatherDisplay:10.37,2013-06-09 16:45:00,
2013-06-09 11:50:00,79.9,58.5,29.93,SSE,148,12.7,12.7,48,0.00,CLR,,0.00,WeatherDisplay:10.37,2013-06-09 16:50:00,
2013-06-09 11:55:00,79.7,57.1,29.92,South,190,13.8,13.8,46,0.00,CLR,,0.00,WeatherDisplay:10.37,2013-06-09 16:55:00,
2013-06-09 12:00:00,79.8,57.2,29.92,SSW,200,11.5,11.5,46,0.00,CLR,,0.00,WeatherDisplay:10.37,2013-06-09 17:00:00,
2013-06-09 12:05:00,79.8,58.4,29.92,SSE,164,9.2,9.2,48,0.00,CLR,,0.00,WeatherDisplay:10.37,2013-06-09 17:05:00,
2013-06-09 12:11:00,79.8,59.5,29.92,SSE,161,4.6,4.6,50,0.00,CLR,,0.00,WeatherDisplay:10.37,2013-06-09 17:11:00,
2013-06-09 12:16:00,79.4,57.4,29.92,South,178,6.9,6.9,47,0.00,CLR,,0.00,WeatherDisplay:10.37,2013-06-09 17:16:00,
2013-06-09 12:21:00,79.2,58.4,29.92,SSE,160,6.9,6.9,49,0.00,CLR,,0.00,WeatherDisplay:10.37,2013-06-09 17:21:00,
2013-06-09 12:26:00,79.2,58.4,29.91,South,182,6.9,6.9,49,0.00,CLR,,0.00,WeatherDisplay:10.37,2013-06-09 17:26:00,
2013-06-09 12:31:00,79.0,58.2,29.91,SSW,206,11.5,11.5,49,0.00,CLR,,0.00,WeatherDisplay:10.37,2013-06-09 17:31:00,
2013-06-09 12:36:00,79.1,58.9,29.91,SSE,168,6.9,6.9,50,0.00,CLR,,0.00,WeatherDisplay:10.37,2013-06-09 17:36:00,
2013-06-09 12:41:00,79.7,58.3,29.91,SSE,155,6.9,6.9,48,0.00,CLR,,0.00,WeatherDisplay:10.37,2013-06-09 17:41:00,
2013-06-09 12:46:00,79.8,58.4,29.91,South,188,7.0,7.0,48,0.00,CLR,,0.00,WeatherDisplay:10.37,2013-06-09 17:46:00,
2013-06-09 12:52:00,80.0,58.5,29.91,SSE,157,11.5,11.5,48,0.00,CLR,,0.00,WeatherDisplay:10.37,2013-06-09 17:52:00,
2013-06-09 12:57:00,80.2,56.9,29.90,SW,223,10.4,10.4,45,0.00,CLR,,0.00,WeatherDisplay:10.37,2013-06-09 17:57:00,
2013-06-09 13:02:00,80.1,58.0,29.90,South,169,12.7,12.7,47,0.00,CLR,,0.00,WeatherDisplay:10.37,2013-06-09 18:02:00,
2013-06-09 13:07:00,79.9,57.3,29.90,ESE,111,9.2,9.2,46,0.00,CLR,,0.00,WeatherDisplay:10.37,2013-06-09 18:07:00,
2013-06-09 13:12:00,79.4,57.4,29.90,SE,142,11.5,11.5,47,0.00,CLR,,0.00,WeatherDisplay:10.37,2013-06-09 18:12:00,
2013-06-09 13:17:00,79.8,57.8,29.90,SE,130,6.9,6.9,47,0.00,CLR,,0.00,WeatherDisplay:10.37,2013-06-09 18:17:00,
2013-06-09 13:22:00,80.3,57.6,29.90,SSE,165,12.7,12.7,46,0.00,CLR,,0.00,WeatherDisplay:10.37,2013-06-09 18:22:00,
2013-06-09 13:27:00,80.2,58.7,29.90,SE,138,6.0,6.0,48,0.00,CLR,,0.00,WeatherDisplay:10.37,2013-06-09 18:27:00,
2013-06-09 13:32:00,80.3,58.2,29.89,SSE,167,11.5,11.5,47,0.00,CLR,,0.00,WeatherDisplay:10.37,2013-06-09 18:32:00,
2013-06-09 13:37:00,81.0,58.9,29.89,SSE,159,8.1,8.1,47,0.00,CLR,,0.00,WeatherDisplay:10.37,2013-06-09 18:37:00,
2013-06-09 13:43:00,80.7,58.6,29.89,ESE,123,11.5,11.5,47,0.00,CLR,,0.00,WeatherDisplay:10.37,2013-06-09 18:43:00,
2013-06-09 13:48:00,80.5,58.4,29.89,SE,128,11.5,11.5,47,0.00,CLR,,0.00,WeatherDisplay:10.37,2013-06-09 18:48:00,
2013-06-09 13:53:00,80.5,58.4,29.89,SSE,164,10.4,10.4,47,0.00,CLR,,0.00,WeatherDisplay:10.37,2013-06-09 18:53:00,
2013-06-09 13:58:00,80.2,58.7,29.89,ESE,104,11.5,11.5,48,0.00,CLR,,0.00,WeatherDisplay:10.37,2013-06-09 18:58:00,
2013-06-09 14:03:00,80.1,59.8,29.88,SSE,155,10.4,10.4,50,0.00,CLR,,0.00,WeatherDisplay:10.37,2013-06-09 19:03:00,
2013-06-09 14:08:00,80.1,60.3,29.88,SSE,156,5.8,5.8,51,0.00,CLR,,0.00,WeatherDisplay:10.37,2013-06-09 19:08:00,
2013-06-09 14:14:00,79.8,59.5,29.88,ESE,108,8.1,8.1,50,0.00,CLR,,0.00,WeatherDisplay:10.37,2013-06-09 19:14:00,
2013-06-09 14:19:00,79.8,60.1,29.88,South,179,10.4,10.4,51,0.00,CLR,,0.00,WeatherDisplay:10.37,2013-06-09 19:19:00,
2013-06-09 14:24:00,79.6,59.9,29.87,SSE,148,10.4,10.4,51,0.00,CLR,,0.00,WeatherDisplay:10.37,2013-06-09 19:24:00,
2013-06-09 14:29:00,79.3,59.0,29.87,ESE,116,6.9,6.9,50,0.00,CLR,,0.00,WeatherDisplay:10.37,2013-06-09 19:29:00,
2013-06-09 14:35:00,79.2,59.5,29.86,East,99,4.6,4.6,51,0.00,CLR,,0.00,WeatherDisplay:10.37,2013-06-09 19:35:00,
2013-06-09 14:40:00,79.1,58.9,29.86,ESE,122,6.9,7.1,50,0.00,CLR,,0.00,WeatherDisplay:10.37,2013-06-09 19:40:00,
2013-06-09 14:45:00,79.1,59.4,29.86,East,97,6.9,6.9,51,0.00,CLR,,0.00,WeatherDisplay:10.37,2013-06-09 19:45:00,
2013-06-09 14:50:00,79.1,59.4,29.86,SSE,167,5.0,5.0,51,0.00,CLR,,0.00,WeatherDisplay:10.37,2013-06-09 19:50:00,
2013-06-09 14:55:00,79.2,59.5,29.86,ESE,122,4.6,4.6,51,0.00,CLR,,0.00,WeatherDisplay:10.37,2013-06-09 19:55:00,
2013-06-09 15:00:00,79.7,60.5,29.86,South,175,6.0,6.0,52,0.00,CLR,,0.00,WeatherDisplay:10.37,2013-06-09 20:00:00,
2013-06-09 15:05:00,79.8,60.6,29.86,ESE,103,4.6,4.6,52,0.00,CLR,,0.00,WeatherDisplay:10.37,2013-06-09 20:05:00,
2013-06-09 15:10:00,79.7,60.0,29.86,ESE,103,6.9,6.9,51,0.00,CLR,,0.00,WeatherDisplay:10.37,2013-06-09 20:10:00,
2013-06-09 15:15:00,79.3,60.1,29.85,ESE,102,4.6,4.6,52,0.00,CLR,,0.00,WeatherDisplay:10.37,2013-06-09 20:15:00,
2013-06-09 15:20:00,79.3,60.7,29.85,SSE,163,5.8,5.8,53,0.00,CLR,,0.00,WeatherDisplay:10.37,2013-06-09 20:20:00,
2013-06-09 15:26:00,79.6,61.5,29.85,SSW,192,4.6,4.6,54,0.00,CLR,,0.00,WeatherDisplay:10.37,2013-06-09 20:26:00,
2013-06-09 15:31:00,79.6,61.0,29.85,SE,126,4.6,6.4,53,0.00,CLR,,0.00,WeatherDisplay:10.37,2013-06-09 20:31:00,
2013-06-09 15:37:00,79.4,60.8,29.84,SSE,148,9.2,9.2,53,0.00,CLR,,0.00,WeatherDisplay:10.37,2013-06-09 20:37:00,
2013-06-09 15:42:00,79.5,61.4,29.84,ESE,106,10.4,10.4,54,0.00,CLR,,0.00,WeatherDisplay:10.37,2013-06-09 20:42:00,
2013-06-09 15:47:00,79.5,61.4,29.84,SE,139,3.5,3.5,54,0.00,CLR,,0.00,WeatherDisplay:10.37,2013-06-09 20:47:00,
2013-06-09 15:53:00,79.4,61.8,29.84,SE,127,11.5,11.5,55,0.00,CLR,,0.00,WeatherDisplay:10.37,2013-06-09 20:53:00,
2013-06-09 15:58:00,79.5,61.9,29.84,ESE,106,10.0,10.0,55,0.00,CLR,,0.00,WeatherDisplay:10.37,2013-06-09 20:58:00,
2013-06-09 16:03:00,79.3,60.7,29.84,ESE,105,10.4,10.4,53,0.00,CLR,,0.00,WeatherDisplay:10.37,2013-06-09 21:03:00,
2013-06-09 16:08:00,78.9,60.8,29.84,SE,136,4.6,4.6,54,0.00,CLR,,0.00,WeatherDisplay:10.37,2013-06-09 21:08:00,
2013-06-09 16:13:00,78.7,61.2,29.84,ESE,111,5.8,5.8,55,0.00,CLR,,0.00,WeatherDisplay:10.37,2013-06-09 21:13:00,
2013-06-09 16:18:00,78.6,60.6,29.84,ESE,117,8.1,8.1,54,0.00,CLR,,0.00,WeatherDisplay:10.37,2013-06-09 21:18:00,
2013-06-09 16:24:00,78.4,60.4,29.84,SSE,164,4.6,4.6,54,0.00,CLR,,0.00,WeatherDisplay:10.37,2013-06-09 21:24:00,
2013-06-09 16:29:00,78.5,60.5,29.84,ESE,108,8.0,8.0,54,0.00,CLR,,0.00,WeatherDisplay:10.37,2013-06-09 21:29:00,
2013-06-09 16:34:00,78.7,60.7,29.84,ENE,70,3.5,3.5,54,0.00,CLR,,0.00,WeatherDisplay:10.37,2013-06-09 21:34:00,
2013-06-09 16:39:00,78.6,60.6,29.84,SSE,167,5.8,5.8,54,0.00,CLR,,0.00,WeatherDisplay:10.37,2013-06-09 21:39:00,
2013-06-09 16:45:00,78.4,60.4,29.84,East,94,6.9,6.9,54,0.00,CLR,,0.00,WeatherDisplay:10.37,2013-06-09 21:45:00,
2013-06-09 16:50:00,78.2,60.7,29.83,SE,126,11.5,11.5,55,0.00,CLR,,0.00,WeatherDisplay:10.37,2013-06-09 21:50:00,
2013-06-09 16:55:00,77.9,60.4,29.83,East,96,4.6,4.6,55,0.00,CLR,,0.00,WeatherDisplay:10.37,2013-06-09 21:55:00,
2013-06-09 17:00:00,77.8,60.8,29.83,South,182,5.0,5.0,56,0.00,CLR,,0.00,WeatherDisplay:10.37,2013-06-09 22:00:00,
2013-06-09 17:05:00,77.7,60.8,29.83,ESE,106,7.0,7.0,56,0.00,CLR,,0.00,WeatherDisplay:10.37,2013-06-09 22:05:00,
2013-06-09 17:10:00,77.6,61.2,29.83,SSE,167,5.8,5.8,57,0.00,CLR,,0.00,WeatherDisplay:10.37,2013-06-09 22:10:00,
2013-06-09 17:15:00,77.5,61.1,29.82,SE,134,4.6,4.6,57,0.00,CLR,,0.00,WeatherDisplay:10.37,2013-06-09 22:15:00,
2013-06-09 17:20:00,77.5,61.6,29.82,SSE,158,5.8,5.8,58,0.00,CLR,,0.00,WeatherDisplay:10.37,2013-06-09 22:20:00,
2013-06-09 17:25:00,77.4,61.5,29.82,East,98,4.6,0.0,58,0.00,CLR,,0.00,WeatherDisplay:10.37,2013-06-09 22:25:00,
2013-06-09 17:30:00,77.3,61.4,29.82,SE,145,5.0,5.0,58,0.00,CLR,,0.00,WeatherDisplay:10.37,2013-06-09 22:30:00,
2013-06-09 17:36:00,77.3,61.9,29.82,South,180,5.0,5.0,59,0.00,CLR,,0.00,WeatherDisplay:10.37,2013-06-09 22:36:00,
2013-06-09 17:41:00,77.3,62.3,29.82,ESE,102,5.8,5.8,60,0.00,CLR,,0.00,WeatherDisplay:10.37,2013-06-09 22:41:00,
2013-06-09 17:46:00,77.2,62.2,29.82,ESE,107,7.0,7.0,60,0.00,CLR,,0.00,WeatherDisplay:10.37,2013-06-09 22:46:00,
2013-06-09 17:51:00,77.1,62.1,29.82,SSE,152,11.5,11.5,60,0.00,CLR,,0.00,WeatherDisplay:10.37,2013-06-09 22:51:00,
2013-06-09 17:57:00,77.0,62.0,29.82,SE,142,5.8,5.8,60,0.00,CLR,,0.00,WeatherDisplay:10.37,2013-06-09 22:57:00,
2013-06-09 18:02:00,76.8,62.3,29.82,South,169,3.5,3.5,61,0.00,CLR,,0.00,WeatherDisplay:10.37,2013-06-09 23:02:00,
2013-06-09 18:07:00,76.6,62.6,29.82,SSE,150,1.2,0.0,62,0.00,CLR,,0.00,WeatherDisplay:10.37,2013-06-09 23:07:00,
2013-06-09 18:12:00,76.5,62.5,29.82,SSW,192,6.0,6.0,62,0.00,CLR,,0.00,WeatherDisplay:10.37,2013-06-09 23:12:00,
2013-06-09 18:17:00,76.1,62.6,29.83,ESE,119,11.5,11.5,63,0.00,CLR,,0.00,WeatherDisplay:10.37,2013-06-09 23:17:00,
2013-06-09 18:22:00,75.7,62.2,29.83,South,172,12.7,12.7,63,0.00,CLR,,0.00,WeatherDisplay:10.37,2013-06-09 23:22:00,
2013-06-09 18:27:00,75.4,62.4,29.83,SE,144,8.0,8.0,64,0.00,CLR,,0.00,WeatherDisplay:10.37,2013-06-09 23:27:00,
2013-06-09 18:32:00,75.3,62.7,29.83,South,178,6.9,6.9,65,0.00,CLR,,0.00,WeatherDisplay:10.37,2013-06-09 23:32:00,
2013-06-09 18:37:00,75.2,62.6,29.83,South,191,6.0,6.0,65,0.00,CLR,,0.00,WeatherDisplay:10.37,2013-06-09 23:37:00,
2013-06-09 18:43:00,75.0,62.4,29.83,ESE,110,5.8,5.8,65,0.00,CLR,,0.00,WeatherDisplay:10.37,2013-06-09 23:43:00,
2013-06-09 18:48:00,74.8,62.2,29.83,SSE,148,3.5,3.5,65,0.00,CLR,,0.00,WeatherDisplay:10.37,2013-06-09 23:48:00,
2013-06-09 18:53:00,74.7,62.1,29.83,SSE,165,4.6,4.6,65,0.00,CLR,,0.00,WeatherDisplay:10.37,2013-06-09 23:53:00,
2013-06-09 18:58:00,74.6,62.1,29.83,SSE,163,3.5,3.5,65,0.00,CLR,,0.00,WeatherDisplay:10.37,2013-06-09 23:58:00,
2013-06-09 19:03:00,74.4,61.9,29.83,South,182,5.8,5.8,65,0.00,CLR,,0.00,WeatherDisplay:10.37,2013-06-10 00:03:00,
2013-06-09 19:09:00,74.2,61.7,29.83,SSE,167,5.8,5.8,65,0.00,CLR,,0.00,WeatherDisplay:10.37,2013-06-10 00:09:00,
2013-06-09 19:14:00,74.1,62.0,29.83,South,172,5.8,5.8,66,0.00,CLR,,0.00,WeatherDisplay:10.37,2013-06-10 00:14:00,
2013-06-09 19:19:00,73.8,62.2,29.82,SE,137,5.8,5.8,67,0.00,CLR,,0.00,WeatherDisplay:10.37,2013-06-10 00:19:00,
2013-06-09 19:24:00,73.3,62.1,29.83,South,171,4.6,4.6,68,0.00,CLR,,0.00,WeatherDisplay:10.37,2013-06-10 00:24:00,
2013-06-09 19:29:00,72.8,62.4,29.82,SSE,161,4.0,4.0,70,0.00,CLR,,0.00,WeatherDisplay:10.37,2013-06-10 00:29:00,
2013-06-09 19:34:00,72.4,62.5,29.82,SE,132,4.6,4.6,71,0.00,CLR,,0.00,WeatherDisplay:10.37,2013-06-10 00:34:00,
2013-06-09 19:39:00,72.1,62.6,29.81,SE,134,3.5,3.5,72,0.00,CLR,,0.00,WeatherDisplay:10.37,2013-06-10 00:39:00,
2013-06-09 19:45:00,71.8,62.3,29.81,SSE,165,1.2,1.2,72,0.00,CLR,,0.00,WeatherDisplay:10.37,2013-06-10 00:45:00,
2013-06-09 19:50:00,71.6,62.5,29.81,SSE,163,3.5,3.5,73,0.00,CLR,,0.00,WeatherDisplay:10.37,2013-06-10 00:50:00,
2013-06-09 19:55:00,71.4,62.7,29.82,South,173,5.8,5.8,74,0.00,CLR,,0.00,WeatherDisplay:10.37,2013-06-10 00:55:00,
2013-06-09 20:00:00,71.3,62.6,29.82,SE,146,9.2,9.2,74,0.00,CLR,,0.00,WeatherDisplay:10.37,2013-06-10 01:00:00,
2013-06-09 20:05:00,71.0,62.7,29.82,South,169,11.5,11.5,75,0.00,CLR,,0.00,WeatherDisplay:10.37,2013-06-10 01:05:00,
2013-06-09 20:10:00,70.8,62.9,29.82,SSW,208,10.4,10.4,76,0.00,CLR,,0.00,WeatherDisplay:10.37,2013-06-10 01:10:00,
2013-06-09 20:15:00,70.6,63.0,29.82,SSE,165,4.6,4.6,77,0.00,CLR,,0.00,WeatherDisplay:10.37,2013-06-10 01:15:00,
2013-06-09 20:21:00,70.3,63.1,29.81,SSE,148,5.8,5.8,78,0.00,CLR,,0.00,WeatherDisplay:10.37,2013-06-10 01:21:00,
2013-06-09 20:26:00,69.9,63.1,29.81,ESE,119,4.6,4.6,79,0.00,CLR,,0.00,WeatherDisplay:10.37,2013-06-10 01:26:00,
2013-06-09 20:31:00,69.6,63.5,29.81,SE,142,2.3,2.3,81,0.00,CLR,,0.00,WeatherDisplay:10.37,2013-06-10 01:31:00,
2013-06-09 20:36:00,69.3,63.2,29.81,ESE,107,3.5,3.5,81,0.00,CLR,,0.00,WeatherDisplay:10.37,2013-06-10 01:36:00,
2013-06-09 20:42:00,69.1,63.4,29.81,SE,136,2.3,2.3,82,0.00,CLR,,0.00,WeatherDisplay:10.37,2013-06-10 01:42:00,
2013-06-09 20:47:00,69.0,63.6,29.81,East,84,4.0,4.0,83,0.00,CLR,,0.00,WeatherDisplay:10.37,2013-06-10 01:47:00,
2013-06-09 20:52:00,69.0,63.6,29.81,SE,127,3.5,3.5,83,0.00,CLR,,0.00,WeatherDisplay:10.37,2013-06-10 01:52:00,
2013-06-09 20:57:00,68.8,63.4,29.81,SSE,149,4.6,4.6,83,0.00,CLR,,0.00,WeatherDisplay:10.37,2013-06-10 01:57:00,
2013-06-09 21:02:00,68.7,63.7,29.81,SE,146,1.2,0.0,84,0.00,CLR,,0.00,WeatherDisplay:10.37,2013-06-10 02:02:00,
2013-06-09 21:07:00,68.6,63.6,29.81,SSE,148,0.0,0.0,84,0.00,CLR,,0.00,WeatherDisplay:10.37,2013-06-10 02:07:00,
2013-06-09 21:12:00,68.6,63.9,29.81,SSE,148,1.2,0.0,85,0.00,CLR,,0.00,WeatherDisplay:10.37,2013-06-10 02:12:00,
2013-06-09 21:18:00,68.5,63.8,29.81,SSE,148,0.0,0.0,85,0.00,CLR,,0.00,WeatherDisplay:10.37,2013-06-10 02:18:00,
2013-06-09 21:23:00,68.4,63.7,29.80,SSE,148,0.0,0.0,85,0.00,CLR,,0.00,WeatherDisplay:10.37,2013-06-10 02:23:00,
2013-06-09 21:28:00,68.3,63.6,29.80,SSE,148,0.0,0.0,85,0.01,RA,,0.01,WeatherDisplay:10.37,2013-06-10 02:28:00,
2013-06-09 21:33:00,68.1,63.8,29.80,SE,129,0.0,0.0,86,0.01,RA,,0.01,WeatherDisplay:10.37,2013-06-10 02:33:00,
2013-06-09 21:38:00,68.1,63.8,29.80,SE,129,3.5,3.5,86,0.01,CLR,,0.01,WeatherDisplay:10.37,2013-06-10 02:38:00,
2013-06-09 21:43:00,68.0,64.0,29.80,SE,129,0.0,0.0,87,0.01,CLR,,0.01,WeatherDisplay:10.37,2013-06-10 02:43:00,
2013-06-09 21:49:00,67.9,63.9,29.80,SE,129,0.0,0.0,87,0.01,CLR,,0.01,WeatherDisplay:10.37,2013-06-10 02:49:00,
2013-06-09 21:54:00,67.8,63.8,29.80,SE,129,0.0,0.0,87,0.01,CLR,,0.01,WeatherDisplay:10.37,2013-06-10 02:54:00,
2013-06-09 21:59:00,67.7,63.7,29.80,SE,129,0.0,0.0,87,0.01,CLR,,0.01,WeatherDisplay:10.37,2013-06-10 02:59:00,
2013-06-09 22:04:00,67.6,63.9,29.80,SE,129,0.0,0.0,88,0.01,CLR,,0.01,WeatherDisplay:10.37,2013-06-10 03:04:00,
2013-06-09 22:09:00,67.5,63.8,29.80,SE,129,0.0,0.0,88,0.01,CLR,,0.01,WeatherDisplay:10.37,2013-06-10 03:09:00,
2013-06-09 22:15:00,67.5,63.8,29.80,SE,129,0.0,0.0,88,0.01,CLR,,0.01,WeatherDisplay:10.37,2013-06-10 03:15:00,
2013-06-09 22:20:00,67.4,63.7,29.80,SE,129,0.0,0.0,88,0.01,CLR,,0.01,WeatherDisplay:10.37,2013-06-10 03:20:00,
2013-06-09 22:25:00,67.4,64.0,29.80,SE,129,0.0,0.0,89,0.01,CLR,,0.01,WeatherDisplay:10.37,2013-06-10 03:25:00,
2013-06-09 22:30:00,67.4,64.0,29.80,SE,130,0.0,0.0,89,0.00,CLR,,0.01,WeatherDisplay:10.37,2013-06-10 03:30:00,
2013-06-09 22:35:00,67.3,63.9,29.80,ESE,111,0.0,0.1,89,0.00,CLR,,0.01,WeatherDisplay:10.37,2013-06-10 03:35:00,
2013-06-09 22:41:00,67.4,64.0,29.80,ESE,111,0.0,0.0,89,0.00,CLR,,0.01,WeatherDisplay:10.37,2013-06-10 03:41:00,
2013-06-09 22:46:00,67.4,64.0,29.80,ESE,111,0.0,0.0,89,0.00,CLR,,0.01,WeatherDisplay:10.37,2013-06-10 03:46:00,
2013-06-09 22:51:00,67.5,64.5,29.80,ESE,111,0.0,0.0,90,0.00,CLR,,0.01,WeatherDisplay:10.37,2013-06-10 03:51:00,
2013-06-09 22:56:00,67.5,64.5,29.80,ESE,111,0.0,0.0,90,0.00,CLR,,0.01,WeatherDisplay:10.37,2013-06-10 03:56:00,
2013-06-09 23:01:00,67.5,64.5,29.80,ESE,111,0.0,0.0,90,0.00,CLR,,0.01,WeatherDisplay:10.37,2013-06-10 04:01:00,
2013-06-09 23:03:00,67.5,64.5,29.80,ESE,111,0.0,0.0,90,0.00,CLR,,0.01,WeatherDisplay:10.37,2013-06-10 04:03:00,
2013-06-09 23:04:00,67.4,64.4,29.80,ESE,111,0.0,0.0,90,0.00,CLR,,0.01,WeatherDisplay:10.37,2013-06-10 04:04:00,
2013-06-09 23:09:00,67.4,64.4,29.80,ESE,111,0.0,0.0,90,0.00,CLR,,0.01,WeatherDisplay:10.37,2013-06-10 04:09:00,
2013-06-09 23:14:00,67.4,64.4,29.80,ESE,111,1.2,0.0,90,0.00,CLR,,0.01,WeatherDisplay:10.37,2013-06-10 04:14:00,
2013-06-09 23:19:00,67.3,64.3,29.80,ESE,111,0.0,0.0,90,0.00,CLR,,0.01,WeatherDisplay:10.37,2013-06-10 04:19:00,
2013-06-09 23:24:00,67.2,64.2,29.80,ESE,111,1.0,0.0,90,0.00,CLR,,0.01,WeatherDisplay:10.37,2013-06-10 04:24:00,
2013-06-09 23:29:00,67.2,64.2,29.79,ESE,111,1.2,0.0,90,0.00,CLR,,0.01,WeatherDisplay:10.37,2013-06-10 04:29:00,
2013-06-09 23:35:00,67.2,64.2,29.79,ESE,111,0.0,0.0,90,0.00,CLR,,0.01,WeatherDisplay:10.37,2013-06-10 04:35:00,
2013-06-09 23:40:00,67.3,64.3,29.79,ESE,111,0.0,0.0,90,0.00,CLR,,0.01,WeatherDisplay:10.37,2013-06-10 04:40:00,
2013-06-09 23:45:00,67.3,64.3,29.79,ESE,111,1.2,0.0,90,0.00,CLR,,0.01,WeatherDisplay:10.37,2013-06-10 04:45:00,
2013-06-09 23:51:00,67.3,64.3,29.79,ESE,113,1.2,0.0,90,0.00,CLR,,0.01,WeatherDisplay:10.37,2013-06-10 04:51:00,
2013-06-09 23:56:00,67.3,64.6,29.79,ESE,113,0.0,0.0,91,0.00,CLR,,0.01,WeatherDisplay:10.37,2013-06-10 04:56:00,